Regional Weather Roundup
Issued by NWS Albany, NY

Home | Current Version | Previous Version | Text Only | Print | Product List | Glossary On
Versions: 1 2 3 4 5 6 7 8 9 10 11 12 13 14 15 16 17 18 19 20 21 22 23 24 25 26 27 28 29 30 31 32 33 34 35 36 37 38 39 40 41 42 43 44 45 46 47 48 49
000
ASUS41 KALY 022210
RWRALY

NEW YORK STATE HOURLY WEATHER ROUNDUP
NATIONAL WEATHER SERVICE ALBANY NY
500 PM EST MON MAR 02 2015

NOTE: "FAIR" INDICATES FEW OR NO CLOUDS BELOW 12,000 FEET WITH NO
SIGNIFICANT WEATHER AND/OR NO OBSTRUCTIONS TO VISIBILITY.

NYZ032-033-038>043-046>054-057>066-NYZ062>081-022300-
EAST


CITY           SKY/WX    TMP DP  RH WIND       PRES   REMARKS
ALBANY         FLURRIES  28  14  55 NW16G36   30.17R WCI  16
GLENS FALLS    CLOUDY    29   9  43 NW25G35   30.13R WCI  14
POUGHKEEPSIE   CLEAR     34  10  37 W9        30.17R WCI  27
NEWBURGH       PTCLDY    32  16  51 NW18G29   30.17R WCI  20
MONTGOMERY     CLEAR     32  11  41 NW15G31   30.16R WCI  22
WHITE PLAINS   CLEAR     33  12  41 NW18G25   30.13R WCI  22
ISLIP          CLEAR     35  14  42 NW16G29   30.13R WCI  25
NEW YORK CITY  CLEAR     37  13  37 NW20G25   30.17R WCI  27
CENTRAL PARK   CLEAR     38  11  32 VRB7G20   30.19R WCI  33
$$

NYZ005>009-017-018-044>046-055-056-022300-
CENTRAL


CITY           SKY/WX    TMP DP  RH WIND       PRES   REMARKS
FULTON         MIX PCPN  26  16  65 W21G37    30.29R WCI  12
SYRACUSE       MOCLDY    23  14  68 MISG      30.27R
ROME           MIX PCPN  24  16  71 W25G31    30.26R WCI   8
ELMIRA         CLEAR     27  10  49 NW25G32   30.29R WCI  12
BINGHAMTON     PTCLDY    24   9  52 NW16G24   30.19R WCI  11
MONTICELLO     CLEAR     27  10  50 NW17G23   30.14R WCI  14
$$

NYZ026>034-041>043-022300-
NORTH


CITY           SKY/WX    TMP DP  RH WIND       PRES   REMARKS
WATERTOWN      PTCLDY    26  12  55 W21G32    30.26R WCI  12
FORT DRUM      NOT AVBL
MASSENA        MOCLDY    25  10  53 NW21G29   30.20R WCI  11
SARANAC LAKE   SNOW      19  15  84 W10G24    30.03R VSB 1/2 WCI   7
PLATTSBURGH    CLOUDY    26  14  60 VRB7      30.11R WCI  18
$$

NYZ001>004-010>016-019>021-022300-
WEST


CITY           SKY/WX    TMP DP  RH WIND       PRES   REMARKS
NIAGARA FALLS  FLURRIES  24  13  62 NW22G30   30.37R WCI   9
BUFFALO        PTSUNNY   25  10  53 W18       30.36R WCI  11
DUNKIRK        SUNNY     23  15  71 SW15G28   30.41S WCI  10
JAMESTOWN      CLOUDY    19  10  68 W15       30.32S WCI   5
WELLSVILLE     SUNNY     21   7  54 NW21      30.26R WCI   5
ROCHESTER      MOCLDY    27  12  53 NW20G28   30.33R WCI  13
PENN YAN       CLOUDY    26  10  50 W8G22     30.30R WCI  18
$$

             KEY
       WCI = WIND CHILL INDEX
       VSB = VISIBILITY
       HX  = HEAT INDEX
$$


USA.gov is the U.S. government's official web portal to all federal, state and local government web resources and services.